TimeCST,TemperatureF,Dew PointF,Humidity,Sea Level PressureIn,VisibilityMPH,Wind Direction,Wind SpeedMPH,Gust SpeedMPH,PrecipitationIn,Events,Conditions,WindDirDegrees,DateUTC
12:55 AM,48.2,46.6,94,30.16,10.0,North,6.9,-,N/A,,Clear,360,2012-11-22 06:55:00
1:55 AM,48.0,46.4,94,30.16,10.0,North,6.9,-,N/A,,Clear,10,2012-11-22 07:55:00
2:55 AM,46.6,45.5,96,30.16,10.0,North,6.9,-,N/A,,Clear,10,2012-11-22 08:55:00
3:55 AM,46.4,45.5,97,30.16,10.0,North,6.9,-,N/A,,Clear,10,2012-11-22 09:55:00
4:55 AM,45.9,45.1,97,30.17,10.0,North,5.8,-,N/A,,Clear,10,2012-11-22 10:55:00
5:55 AM,45.5,44.6,97,30.19,10.0,North,5.8,-,N/A,,Clear,10,2012-11-22 11:55:00
6:55 AM,48.0,47.5,98,30.20,10.0,North,5.8,-,N/A,,Clear,10,2012-11-22 12:55:00
7:55 AM,55.4,52.7,91,30.22,10.0,Calm,Calm,-,N/A,,Clear,0,2012-11-22 13:55:00
8:55 AM,63.7,51.4,64,30.24,10.0,ENE,4.6,-,N/A,,Clear,60,2012-11-22 14:55:00
9:00 AM,64.4,51.8,64,30.24,10.0,ENE,4.6,-,N/A,,Light Drizzle,60,2012-11-22 15:00:00
9:20 AM,66.2,51.8,60,30.24,10.0,NE,4.6,-,N/A,,Clear,40,2012-11-22 15:20:00
9:41 AM,68.0,51.8,56,30.25,10.0,ENE,3.5,-,N/A,,Light Drizzle,70,2012-11-22 15:41:00
9:55 AM,68.4,51.8,55,30.24,10.0,Calm,Calm,-,0.00,,Light Drizzle,0,2012-11-22 15:55:00
10:11 AM,69.8,51.8,53,30.24,10.0,Calm,Calm,-,N/A,,Clear,0,2012-11-22 16:11:00
10:24 AM,69.8,51.8,53,30.23,10.0,ESE,3.5,-,N/A,,Light Drizzle,110,2012-11-22 16:24:00
10:55 AM,71.8,53.4,52,30.22,10.0,SSE,4.6,-,0.00,,Light Drizzle,160,2012-11-22 16:55:00
11:23 AM,71.6,51.8,50,30.22,10.0,SSE,8.1,-,N/A,,Clear,160,2012-11-22 17:23:00
11:26 AM,71.6,51.8,50,30.22,10.0,SSE,9.2,-,N/A,Rain,Light Rain,160,2012-11-22 17:26:00
11:27 AM,71.6,51.8,50,30.22,10.0,SSE,9.2,-,N/A,,Clear,160,2012-11-22 17:27:00
11:55 AM,70.2,53.4,55,30.21,10.0,SE,11.5,-,0.00,,Clear,140,2012-11-22 17:55:00
12:40 PM,69.8,55.4,60,30.19,10.0,SSE,10.4,-,N/A,,Light Drizzle,150,2012-11-22 18:40:00
12:50 PM,69.8,55.4,60,30.19,10.0,SSE,10.4,-,N/A,,Clear,150,2012-11-22 18:50:00
12:55 PM,70.0,55.8,61,30.19,10.0,SSE,8.1,-,0.00,,Light Drizzle,160,2012-11-22 18:55:00
1:05 PM,69.8,57.2,64,30.19,10.0,South,8.1,-,N/A,,Clear,170,2012-11-22 19:05:00
1:49 PM,69.8,57.2,64,30.18,10.0,South,8.1,-,N/A,Rain,Light Rain,190,2012-11-22 19:49:00
1:51 PM,69.8,57.2,64,30.18,10.0,South,6.9,-,N/A,,Clear,180,2012-11-22 19:51:00
1:55 PM,69.4,58.5,68,30.18,10.0,South,6.9,-,0.00,,Clear,180,2012-11-22 19:55:00
2:22 PM,69.8,59.0,68,30.18,10.0,South,8.1,-,N/A,Rain,Light Rain,180,2012-11-22 20:22:00
2:27 PM,69.8,59.0,68,30.18,10.0,South,8.1,-,N/A,,Clear,190,2012-11-22 20:27:00
2:55 PM,69.4,58.1,67,30.18,10.0,South,8.1,-,0.00,,Clear,190,2012-11-22 20:55:00
3:06 PM,69.8,57.2,64,30.18,10.0,South,6.9,-,N/A,,Light Drizzle,190,2012-11-22 21:06:00
3:15 PM,69.8,57.2,64,30.18,10.0,SSW,6.9,-,N/A,,Clear,200,2012-11-22 21:15:00
3:22 PM,69.8,57.2,64,30.17,10.0,SSW,8.1,-,N/A,,Light Drizzle,200,2012-11-22 21:22:00
3:32 PM,69.8,57.2,64,30.18,10.0,SSW,6.9,-,N/A,,Clear,200,2012-11-22 21:32:00
3:55 PM,68.5,57.2,67,30.18,10.0,SSW,6.9,-,0.00,,Clear,210,2012-11-22 21:55:00
4:55 PM,65.3,57.4,76,30.18,10.0,SW,3.5,-,N/A,,Clear,230,2012-11-22 22:55:00
5:55 PM,63.5,57.4,80,30.19,10.0,Calm,Calm,-,N/A,,Clear,0,2012-11-22 23:55:00
6:55 PM,55.8,54.1,94,30.19,10.0,Calm,Calm,-,N/A,,Clear,0,2012-11-23 00:55:00
7:55 PM,52.2,51.1,96,30.21,10.0,North,4.6,-,N/A,,Clear,10,2012-11-23 01:55:00
8:55 PM,50.9,50.0,97,30.21,10.0,North,5.8,-,N/A,,Clear,10,2012-11-23 02:55:00
9:55 PM,50.0,49.3,97,30.21,10.0,North,3.5,-,N/A,,Clear,360,2012-11-23 03:55:00
10:55 PM,48.6,47.8,97,30.21,10.0,North,3.5,-,N/A,,Clear,10,2012-11-23 04:55:00
11:55 PM,47.5,46.6,97,30.21,10.0,North,4.6,-,N/A,,Clear,10,2012-11-23 05:55:00